When you browse on this site, cookies collect data to enhance your experience and personalize the content and advertising you see.
Visit our Privacy Policy to learn more. By continuing to use the site, you agree to this use of cookies and data.

Hourly Weather Osh

Today, 14 July, Tuesday

Time Temperature Precipitation Wind Pressure Humidity
00:00 +22°C° 0 mm 1 mps 653 mmHg 43%
01:00 +22°C° 0 mm 1 mps 652 mmHg 43%
02:00 +21°C° 0 mm 1 mps 652 mmHg 43%
03:00 +21°C° 0 mm 1 mps 652 mmHg 44%
04:00 +21°C° 0 mm 1 mps 653 mmHg 44%
05:00 +20°C° 0 mm 1 mps 653 mmHg 57%
06:00 +22°C° 0 mm 1 mps 653 mmHg 51%
07:00 +24°C° 0 mm 1 mps 654 mmHg 45%
08:00 +24°C° 0 mm 0 mps 655 mmHg 39%
09:00 +27°C° 0 mm 1 mps 655 mmHg 38%
10:00 +28°C° 0 mm 2 mps 655 mmHg 36%
11:00 +29°C° 0 mm 3 mps 655 mmHg 36%
12:00 +30°C° 0.1 mm 3 mps 655 mmHg 34%
13:00 +31°C° 0.1 mm 3 mps 655 mmHg 32%
14:00 +31°C° 0.1 mm 3 mps 654 mmHg 30%
15:00 +33°C° 0.1 mm 3 mps 655 mmHg 29%
16:00 +33°C° 0.1 mm 3 mps 655 mmHg 27%
17:00 +32°C° 0.1 mm 2 mps 655 mmHg 26%
18:00 +30°C° 0.2 mm 2 mps 655 mmHg 31%
19:00 +27°C° 0.2 mm 2 mps 655 mmHg 36%
20:00 +25°C° 0.2 mm 2 mps 655 mmHg 41%
21:00 +24°C° 0.4 mm 3 mps 655 mmHg 47%
22:00 +24°C° 0.4 mm 3 mps 655 mmHg 52%
23:00 +22°C° 0.4 mm 4 mps 655 mmHg 58%

Tomorrow, 15 July, Wednesday

Time Temperature Precipitation Wind Pressure Humidity
00:00 +21°C° 0 mm 3 mps 654 mmHg 58%
01:00 +21°C° 0 mm 2 mps 654 mmHg 59%
02:00 +21°C° 0 mm 1 mps 653 mmHg 59%
03:00 +21°C° 0.1 mm 1 mps 653 mmHg 57%
04:00 +21°C° 0.1 mm 1 mps 654 mmHg 55%
05:00 +21°C° 0.1 mm 1 mps 654 mmHg 54%
06:00 +23°C° 0 mm 1 mps 654 mmHg 48%
07:00 +25°C° 0 mm 1 mps 655 mmHg 42%
08:00 +27°C° 0 mm 1 mps 655 mmHg 36%
09:00 +29°C° 0 mm 1 mps 655 mmHg 34%
10:00 +30°C° 0 mm 2 mps 656 mmHg 32%
11:00 +31°C° 0 mm 3 mps 656 mmHg 29%
12:00 +33°C° 0.1 mm 3 mps 656 mmHg 27%
13:00 +34°C° 0.1 mm 3 mps 655 mmHg 24%
14:00 +35°C° 0.1 mm 3 mps 655 mmHg 22%
15:00 +35°C° 0 mm 3 mps 655 mmHg 22%
16:00 +35°C° 0 mm 3 mps 655 mmHg 22%
17:00 +34°C° 0 mm 3 mps 655 mmHg 22%
18:00 +33°C° 0 mm 3 mps 655 mmHg 24%
19:00 +30°C° 0 mm 2 mps 655 mmHg 27%
20:00 +28°C° 0 mm 2 mps 655 mmHg 30%
21:00 +27°C° 0 mm 2 mps 654 mmHg 33%
22:00 +26°C° 0 mm 2 mps 654 mmHg 36%
23:00 +25°C° 0 mm 1 mps 654 mmHg 39%

Day after tomorrow, 16 July, Thursday

Time Temperature Precipitation Wind Pressure Humidity
00:00 +25°C° 0 mm 2 mps 654 mmHg 39%
01:00 +24°C° 0 mm 2 mps 654 mmHg 39%
02:00 +24°C° 0 mm 3 mps 653 mmHg 40%
03:00 +24°C° 0.1 mm 2 mps 653 mmHg 41%
04:00 +23°C° 0.1 mm 2 mps 653 mmHg 42%
05:00 +23°C° 0.1 mm 1 mps 653 mmHg 43%
06:00 +25°C° 0.1 mm 1 mps 653 mmHg 39%
07:00 +27°C° 0.1 mm 1 mps 654 mmHg 36%
08:00 +28°C° 0.1 mm 1 mps 654 mmHg 32%
09:00 +30°C° 0 mm 2 mps 655 mmHg 30%
10:00 +31°C° 0 mm 3 mps 655 mmHg 27%
11:00 +33°C° 0 mm 4 mps 655 mmHg 25%
12:00 +34°C° 0 mm 3 mps 655 mmHg 24%
13:00 +34°C° 0 mm 2 mps 654 mmHg 22%
14:00 +35°C° 0 mm 2 mps 654 mmHg 21%
15:00 +34°C° 0.1 mm 2 mps 654 mmHg 22%
16:00 +34°C° 0.1 mm 2 mps 654 mmHg 22%
17:00 +34°C° 0.1 mm 3 mps 654 mmHg 23%
18:00 +31°C° 0 mm 3 mps 654 mmHg 27%
19:00 +29°C° 0 mm 3 mps 654 mmHg 30%
20:00 +28°C° 0 mm 3 mps 654 mmHg 34%
21:00 +27°C° 0 mm 2 mps 654 mmHg 36%
22:00 +25°C° 0 mm 2 mps 654 mmHg 39%
23:00 +24°C° 0 mm 2 mps 653 mmHg 41%

17 July, Friday

Time Temperature Precipitation Wind Pressure Humidity
00:00 +24°C° 0 mm 2 mps 653 mmHg 41%
01:00 +24°C° 0 mm 2 mps 653 mmHg 40%
02:00 +23°C° 0 mm 2 mps 653 mmHg 40%
03:00 +23°C° 0 mm 2 mps 653 mmHg 40%
04:00 +23°C° 0 mm 2 mps 653 mmHg 40%
05:00 +23°C° 0 mm 2 mps 653 mmHg 39%
06:00 +25°C° 0 mm 1 mps 654 mmHg 35%
07:00 +28°C° 0 mm 1 mps 655 mmHg 31%
08:00 +28°C° 0 mm 0 mps 655 mmHg 27%
09:00 +31°C° 0 mm 1 mps 656 mmHg 25%
10:00 +34°C° 0 mm 2 mps 656 mmHg 23%
11:00 +35°C° 0 mm 3 mps 656 mmHg 21%
12:00 +36°C° 0 mm 3 mps 656 mmHg 20%
13:00 +36°C° 0 mm 3 mps 656 mmHg 19%
14:00 +37°C° 0 mm 4 mps 656 mmHg 18%
15:00 +36°C° 0.1 mm 3 mps 656 mmHg 19%
16:00 +36°C° 0.1 mm 3 mps 655 mmHg 20%
17:00 +36°C° 0.1 mm 3 mps 655 mmHg 21%
18:00 +33°C° 0.2 mm 3 mps 655 mmHg 27%
19:00 +29°C° 0.2 mm 3 mps 655 mmHg 34%
20:00 +26°C° 0.2 mm 4 mps 654 mmHg 40%
21:00 +26°C° 0.5 mm 4 mps 654 mmHg 42%
22:00 +26°C° 0.5 mm 5 mps 655 mmHg 43%
23:00 +25°C° 0.5 mm 5 mps 655 mmHg 45%

18 July, Saturday

Time Temperature Precipitation Wind Pressure Humidity
00:00 +25°C° 0.1 mm 4 mps 655 mmHg 44%
01:00 +25°C° 0.1 mm 4 mps 655 mmHg 43%
02:00 +25°C° 0.1 mm 3 mps 655 mmHg 42%
03:00 +24°C° 0 mm 3 mps 655 mmHg 42%
04:00 +24°C° 0 mm 3 mps 655 mmHg 42%
05:00 +24°C° 0 mm 3 mps 655 mmHg 41%
06:00 +26°C° 0 mm 2 mps 656 mmHg 36%
07:00 +28°C° 0 mm 2 mps 656 mmHg 31%
08:00 +31°C° 0 mm 1 mps 657 mmHg 26%
09:00 +32°C° 0 mm 2 mps 657 mmHg 23%
10:00 +34°C° 0 mm 3 mps 657 mmHg 21%
11:00 +35°C° 0 mm 3 mps 657 mmHg 19%
12:00 +36°C° 0 mm 3 mps 657 mmHg 18%
13:00 +36°C° 0 mm 3 mps 657 mmHg 17%
14:00 +37°C° 0 mm 3 mps 657 mmHg 15%
15:00 +36°C° 0 mm 4 mps 656 mmHg 18%
16:00 +35°C° 0 mm 4 mps 656 mmHg 21%
17:00 +34°C° 0 mm 5 mps 656 mmHg 23%
18:00 +33°C° 0 mm 5 mps 656 mmHg 24%
19:00 +32°C° 0 mm 4 mps 656 mmHg 25%
20:00 +30°C° 0 mm 4 mps 656 mmHg 25%
21:00 +29°C° 0 mm 3 mps 656 mmHg 27%
22:00 +28°C° 0 mm 3 mps 656 mmHg 28%
23:00 +27°C° 0 mm 3 mps 656 mmHg 29%

19 July, Sunday

Time Temperature Precipitation Wind Pressure Humidity
00:00 +26°C° 0.1 mm 3 mps 656 mmHg 31%
01:00 +26°C° 0.1 mm 3 mps 656 mmHg 34%
02:00 +25°C° 0.1 mm 3 mps 656 mmHg 36%
03:00 +25°C° 0 mm 2 mps 656 mmHg 36%
04:00 +24°C° 0 mm 2 mps 656 mmHg 36%
05:00 +24°C° 0 mm 2 mps 656 mmHg 35%
06:00 +26°C° 0 mm 2 mps 656 mmHg 31%
07:00 +29°C° 0 mm 2 mps 657 mmHg 26%
08:00 +31°C° 0 mm 2 mps 657 mmHg 21%
09:00 +32°C° 0 mm 2 mps 657 mmHg 19%
10:00 +34°C° 0 mm 3 mps 656 mmHg 18%
11:00 +35°C° 0 mm 4 mps 656 mmHg 16%
12:00 +35°C° 0 mm 4 mps 656 mmHg 16%
13:00 +36°C° 0 mm 4 mps 656 mmHg 16%
14:00 +36°C° 0 mm 4 mps 655 mmHg 16%
15:00 +36°C° 0 mm 4 mps 655 mmHg 16%
16:00 +36°C° 0 mm 4 mps 655 mmHg 16%
17:00 +36°C° 0 mm 4 mps 655 mmHg 16%
18:00 +34°C° 0 mm 4 mps 655 mmHg 19%
19:00 +32°C° 0 mm 4 mps 654 mmHg 23%
20:00 +28°C° 0 mm 4 mps 654 mmHg 27%
21:00 +28°C° 0 mm 4 mps 654 mmHg 26%
22:00 +28°C° 0 mm 5 mps 654 mmHg 25%
23:00 +28°C° 0 mm 5 mps 654 mmHg 24%
Show more